STARLINK-35823 (66360 NORAD) Tracking and Keplerian Element Data

This shows tracking and keplerian element data for the satellite.

Feedback or suggestion? Click here.




ElementValue
Catalog66360
NameSTARLINK-35823
Epoch Orbit595
Epoch Day354.25003472
Epoch Year2025
RAAN241.0945
Inclination53.16
Eccentricity0.00014
Argument of Perigee85.8202
Mean Anonmoly71.0885
Mean Motion15.29351694
Decay Rate9.795E-05
L11 66360U 25254N 25354.25003472 .00009795 00000+0 35135-3 0 9990
L22 66360 53.1600 241.0945 0001400 85.8202 71.0885 15.29351694 5956



Live tracking and technical data element details for STARLINK-35823 (NORAD 66360). STARLINK-35823 can be tracked NOW for your location showing map with azimuth and elevation plus other details from your city location.







IsCatalogInMostPopularTable: catalog: 66360, numindb: 4
Update: records affected: 1



GetName: 66360 STARLINK-35823

Hit Count: updated at: Sun, 08 Feb 2026 16:19:16 GMT